When you browse on this site, cookies collect data to enhance your experience and personalize the content and advertising you see.
Visit our Privacy Policy to learn more. By continuing to use the site, you agree to this use of cookies and data.
  • Em Portugal
  • Lista de países
  • Para 7 dias
  • Temperatura da água
  • Mapa do tempo
  • Widgets de tempo
  • user-avatar
    Iniciar Sessão

    Previsão horária em Lulki

    Hoje, 28 Janeiro, Terça-feira

    Tempo Temperatura Precipitação Vento Pressão Humidade
    00:00 0°C° 0 mm 1 m/s 712 mmHg 81%
    01:00 -2°C° 0 mm 2 m/s 711 mmHg 81%
    02:00 -2°C° 0 mm 2 m/s 711 mmHg 81%
    03:00 -2°C° 0 mm 2 m/s 710 mmHg 80%
    04:00 -2°C° 0 mm 2 m/s 710 mmHg 80%
    05:00 -1°C° 0 mm 2 m/s 709 mmHg 80%
    06:00 -1°C° 0 mm 2 m/s 709 mmHg 80%
    07:00 -1°C° 0 mm 2 m/s 708 mmHg 80%
    08:00 +1°C° 0 mm 2 m/s 708 mmHg 78%
    09:00 +2°C° 0 mm 2 m/s 708 mmHg 76%
    10:00 +2°C° 0 mm 2 m/s 708 mmHg 74%
    11:00 +3°C° 0 mm 2 m/s 707 mmHg 75%
    12:00 +4°C° 0 mm 1 m/s 707 mmHg 76%
    13:00 +4°C° 0 mm 1 m/s 706 mmHg 77%
    14:00 +4°C° 0 mm 1 m/s 705 mmHg 80%
    15:00 +2°C° 0 mm 2 m/s 705 mmHg 83%
    16:00 +1°C° 0 mm 2 m/s 704 mmHg 86%
    17:00 +1°C° 0.1 mm 2 m/s 704 mmHg 87%
    18:00 +1°C° 0.1 mm 2 m/s 704 mmHg 87%
    19:00 -1°C° 0.1 mm 2 m/s 704 mmHg 88%
    20:00 +1°C° 0.3 mm 2 m/s 703 mmHg 90%
    21:00 +1°C° 0.3 mm 2 m/s 703 mmHg 91%
    22:00 +1°C° 0.3 mm 2 m/s 703 mmHg 92%
    23:00 0°C° 0 mm 3 m/s 703 mmHg 90%

    Amanhã, 29 Janeiro, Quarta-feira

    Tempo Temperatura Precipitação Vento Pressão Humidade
    00:00 -1°C° 0 mm 3 m/s 703 mmHg 87%
    01:00 -2°C° 0 mm 4 m/s 703 mmHg 85%
    02:00 -2°C° 0 mm 4 m/s 703 mmHg 85%
    03:00 -3°C° 0 mm 4 m/s 703 mmHg 84%
    04:00 -3°C° 0 mm 4 m/s 703 mmHg 84%
    05:00 -3°C° 0 mm 4 m/s 704 mmHg 83%
    06:00 -4°C° 0 mm 4 m/s 704 mmHg 82%
    07:00 -4°C° 0 mm 4 m/s 705 mmHg 80%
    08:00 -4°C° 0 mm 5 m/s 705 mmHg 77%
    09:00 -3°C° 0 mm 6 m/s 705 mmHg 73%
    10:00 -2°C° 0 mm 7 m/s 705 mmHg 69%
    11:00 -2°C° 0.1 mm 7 m/s 705 mmHg 72%
    12:00 -2°C° 0.1 mm 7 m/s 705 mmHg 75%
    13:00 -2°C° 0.1 mm 8 m/s 705 mmHg 78%
    14:00 -2°C° 0 mm 7 m/s 706 mmHg 77%
    15:00 -3°C° 0 mm 7 m/s 706 mmHg 76%
    16:00 -3°C° 0 mm 6 m/s 706 mmHg 75%
    17:00 -3°C° 0 mm 6 m/s 707 mmHg 77%
    18:00 -2°C° 0 mm 5 m/s 707 mmHg 80%
    19:00 -4°C° 0 mm 5 m/s 708 mmHg 82%
    20:00 -4°C° 0 mm 5 m/s 708 mmHg 83%
    21:00 -3°C° 0 mm 4 m/s 708 mmHg 84%
    22:00 -3°C° 0 mm 4 m/s 709 mmHg 84%
    23:00 -4°C° 0.3 mm 5 m/s 709 mmHg 87%

    Depois de amanhã, 30 Janeiro, Quinta-feira

    Tempo Temperatura Precipitação Vento Pressão Humidade
    00:00 -4°C° 0.3 mm 5 m/s 709 mmHg 90%
    01:00 -4°C° 0.3 mm 5 m/s 709 mmHg 93%
    02:00 -4°C° 0.5 mm 5 m/s 710 mmHg 93%
    03:00 -4°C° 0.5 mm 5 m/s 710 mmHg 94%
    04:00 -4°C° 0.5 mm 5 m/s 711 mmHg 95%
    05:00 -4°C° 0.2 mm 5 m/s 712 mmHg 94%
    06:00 -4°C° 0.2 mm 5 m/s 712 mmHg 92%
    07:00 -4°C° 0.2 mm 5 m/s 713 mmHg 91%
    08:00 -4°C° 0 mm 5 m/s 713 mmHg 85%
    09:00 -2°C° 0 mm 5 m/s 713 mmHg 79%
    10:00 -2°C° 0 mm 5 m/s 713 mmHg 74%
    11:00 -2°C° 0 mm 5 m/s 713 mmHg 72%
    12:00 -1°C° 0 mm 5 m/s 713 mmHg 70%
    13:00 -1°C° 0 mm 5 m/s 712 mmHg 68%
    14:00 -1°C° 0 mm 4 m/s 712 mmHg 71%
    15:00 -1°C° 0 mm 3 m/s 712 mmHg 74%
    16:00 -1°C° 0 mm 3 m/s 711 mmHg 77%
    17:00 -1°C° 0 mm 3 m/s 711 mmHg 78%
    18:00 -1°C° 0 mm 3 m/s 711 mmHg 79%
    19:00 -1°C° 0 mm 3 m/s 711 mmHg 81%
    20:00 -1°C° 0 mm 3 m/s 711 mmHg 81%
    21:00 -1°C° 0 mm 3 m/s 711 mmHg 82%
    22:00 -1°C° 0 mm 3 m/s 710 mmHg 82%
    23:00 -1°C° 0 mm 3 m/s 710 mmHg 82%

    31 Janeiro, Sexta-feira

    Tempo Temperatura Precipitação Vento Pressão Humidade
    00:00 -1°C° 0 mm 3 m/s 709 mmHg 82%
    01:00 -1°C° 0 mm 3 m/s 709 mmHg 82%
    02:00 -1°C° 0 mm 3 m/s 708 mmHg 80%
    03:00 -1°C° 0 mm 3 m/s 708 mmHg 78%
    04:00 -1°C° 0 mm 3 m/s 707 mmHg 76%
    05:00 0°C° 0.3 mm 3 m/s 707 mmHg 80%
    06:00 0°C° 0.3 mm 3 m/s 707 mmHg 84%
    07:00 0°C° 0.3 mm 4 m/s 706 mmHg 88%
    08:00 +1°C° 0.4 mm 4 m/s 706 mmHg 90%
    09:00 +1°C° 0.4 mm 4 m/s 706 mmHg 91%
    10:00 +3°C° 0.4 mm 4 m/s 706 mmHg 92%
    11:00 +3°C° 0.5 mm 5 m/s 706 mmHg 91%
    12:00 +3°C° 0.5 mm 5 m/s 706 mmHg 90%
    13:00 +4°C° 0.5 mm 6 m/s 706 mmHg 88%
    14:00 +4°C° 0.1 mm 6 m/s 707 mmHg 87%
    15:00 +4°C° 0.1 mm 6 m/s 707 mmHg 86%
    16:00 +3°C° 0.1 mm 6 m/s 707 mmHg 85%
    17:00 +3°C° 0 mm 6 m/s 708 mmHg 84%
    18:00 +3°C° 0 mm 6 m/s 708 mmHg 84%
    19:00 +3°C° 0 mm 6 m/s 709 mmHg 83%
    20:00 +3°C° 0 mm 6 m/s 709 mmHg 84%
    21:00 +3°C° 0 mm 5 m/s 709 mmHg 85%
    22:00 +3°C° 0 mm 5 m/s 710 mmHg 86%
    23:00 +4°C° 0 mm 4 m/s 710 mmHg 86%

    1 Fevereiro, Sábado

    Tempo Temperatura Precipitação Vento Pressão Humidade
    00:00 +3°C° 0 mm 4 m/s 710 mmHg 87%
    01:00 +3°C° 0 mm 3 m/s 710 mmHg 87%
    02:00 +3°C° 0 mm 3 m/s 710 mmHg 89%
    03:00 +3°C° 0 mm 3 m/s 710 mmHg 90%
    04:00 +3°C° 0 mm 3 m/s 710 mmHg 91%
    05:00 +3°C° 0.1 mm 3 m/s 710 mmHg 91%
    06:00 +3°C° 0.1 mm 3 m/s 710 mmHg 91%
    07:00 +4°C° 0.1 mm 2 m/s 710 mmHg 91%
    08:00 +5°C° 0 mm 2 m/s 710 mmHg 90%
    09:00 +4°C° 0 mm 3 m/s 710 mmHg 89%
    10:00 +5°C° 0 mm 3 m/s 710 mmHg 88%
    11:00 +5°C° 0 mm 3 m/s 710 mmHg 87%
    12:00 +7°C° 0 mm 3 m/s 710 mmHg 86%
    13:00 +7°C° 0 mm 3 m/s 710 mmHg 85%
    14:00 +7°C° 0.2 mm 3 m/s 709 mmHg 86%
    15:00 +5°C° 0.2 mm 3 m/s 709 mmHg 88%
    16:00 +5°C° 0.2 mm 3 m/s 709 mmHg 89%
    17:00 +5°C° 0.1 mm 3 m/s 709 mmHg 89%
    18:00 +5°C° 0.1 mm 3 m/s 709 mmHg 88%
    19:00 +5°C° 0.1 mm 3 m/s 709 mmHg 88%
    20:00 +5°C° 0.4 mm 3 m/s 709 mmHg 89%
    21:00 +5°C° 0.4 mm 3 m/s 709 mmHg 90%
    22:00 +5°C° 0.4 mm 3 m/s 708 mmHg 91%
    23:00 +5°C° 0.4 mm 3 m/s 708 mmHg 91%

    2 Fevereiro, Domingo

    Tempo Temperatura Precipitação Vento Pressão Humidade
    00:00 +5°C° 0.4 mm 4 m/s 708 mmHg 90%
    01:00 +5°C° 0.4 mm 4 m/s 708 mmHg 90%
    02:00 +3°C° 1.3 mm 5 m/s 709 mmHg 90%
    03:00 +3°C° 1.3 mm 6 m/s 709 mmHg 91%
    04:00 +2°C° 1.3 mm 6 m/s 710 mmHg 92%
    05:00 +2°C° 0.2 mm 6 m/s 711 mmHg 87%
    06:00 +1°C° 0.2 mm 6 m/s 711 mmHg 82%
    07:00 0°C° 0.2 mm 5 m/s 712 mmHg 77%
    08:00 +1°C° 0 mm 6 m/s 713 mmHg 76%
    09:00 +1°C° 0 mm 6 m/s 714 mmHg 74%
    10:00 +2°C° 0 mm 6 m/s 714 mmHg 73%
    11:00 +2°C° 0 mm 6 m/s 714 mmHg 72%
    12:00 +3°C° 0 mm 6 m/s 714 mmHg 71%
    13:00 +3°C° 0 mm 6 m/s 714 mmHg 70%
    14:00 +3°C° 0 mm 5 m/s 714 mmHg 72%
    15:00 +3°C° 0 mm 4 m/s 713 mmHg 74%
    16:00 +3°C° 0 mm 3 m/s 713 mmHg 77%
    17:00 +3°C° 0 mm 3 m/s 712 mmHg 78%
    18:00 +2°C° 0 mm 3 m/s 712 mmHg 78%
    19:00 +1°C° 0 mm 4 m/s 712 mmHg 79%
    20:00 +3°C° 0.2 mm 4 m/s 711 mmHg 81%
    21:00 +4°C° 0.2 mm 4 m/s 711 mmHg 83%
    22:00 +5°C° 0.2 mm 4 m/s 710 mmHg 85%
    23:00 +5°C° 0.2 mm 4 m/s 710 mmHg 86%
    Mostrar mais